Savoy, IL

7:28 AM CST on February 08, 2016 (GMT -0600)
Univ Of Illinois-Willard

Weather History for KCMI - December, 2013

Change the Weather History Date:

Wednesday, December 25, 2013

  Actual Average Record
Temperature  
Mean Temperature 26 °F 26 °F  
Max Temperature 32 °F 34 °F - ()
Min Temperature 20 °F 19 °F - ()
Degree Days  
Heating Degree Days 39 38  
Month to date heating degree days 960 883  
Since 1 July heating degree days 2154 2047  
Cooling Degree Days 0 0  
Month to date cooling degree days 0 0  
Year to date cooling degree days 1067 945  
Moisture  
Dew Point 22 °F    
Average Humidity 74    
Maximum Humidity 85    
Minimum Humidity 62    
Precipitation  
Precipitation T in 0.09 in - ()
Month to date precipitation 1.87 1.98  
Year to date precipitation 31.76 39.18  
Sea Level Pressure  
Sea Level Pressure 30.26 in    
Wind  
Wind Speed 14 mph (SW)    
Max Wind Speed 22 mph    
Max Gust Speed 28 mph    
Visibility 9 miles    
Events Rain    
T = Trace of Precipitation, MM = Missing Value Source: NWS Daily Summary

Daily Weather History Graph

Daily Weather History Graph

Search for Another Location

Airport or City:

Trip Planner

Search our weather history database for the weather conditions in past years. The results will help you decide how hot, cold, wet, or windy it might be!

Date:

Astronomy

Dec. 25, 2013 Rise Set
Actual Time 7:13 AM CST 4:33 PM CST
Civil Twilight 6:42 AM CST 5:04 PM CST
Nautical Twilight 6:08 AM CST 5:38 PM CST
Astronomical Twilight 5:35 AM CST 6:11 PM CST
Moon No Moon Rise 11:37 AM CST (12/25)
Length of Visible Light 10h 21m
Length of Day
9h 19m
Waning Gibbous, 48% of the Moon is Illuminated
Dec 25
Waning Gibbous
Jan 1
New
Jan 7
First Quarter
Jan 15
Full
Jan 23
Last Quarter

Hourly Weather History & Observations

Time (CST) Temp. Windchill Dew Point Humidity Pressure Visibility Wind Dir Wind Speed Gust Speed Precip Events Conditions
12:53 AM 21.0 °F 8.6 °F 10.9 °F 65% 30.41 in 10.0 mi South 12.7 mph - N/A   Overcast
1:53 AM 21.0 °F 9.3 °F 12.0 °F 68% 30.39 in 10.0 mi South 11.5 mph - N/A   Overcast
2:53 AM 21.9 °F 8.7 °F 12.9 °F 68% 30.38 in 10.0 mi South 15.0 mph - N/A   Overcast
3:53 AM 21.9 °F 8.2 °F 12.9 °F 68% 30.35 in 10.0 mi South 16.1 mph - N/A   Overcast
4:53 AM 23.0 °F 10.1 °F 14.0 °F 68% 30.33 in 10.0 mi South 15.0 mph - N/A   Overcast
5:51 AM 24.8 °F 12.4 °F 14.0 °F 64% 30.28 in 10.0 mi South 15.0 mph - N/A   Overcast
5:53 AM 24.1 °F 11.0 °F 15.1 °F 69% 30.32 in 10.0 mi South 16.1 mph - N/A   Overcast
6:53 AM 24.1 °F 12.5 °F 15.1 °F 69% 30.32 in 10.0 mi South 12.7 mph - N/A   Overcast
7:53 AM 24.1 °F 12.0 °F 16.0 °F 71% 30.32 in 10.0 mi SSW 13.8 mph - N/A   Overcast
8:53 AM 25.0 °F 13.1 °F 17.1 °F 72% 30.33 in 10.0 mi SSW 13.8 mph - N/A   Overcast
9:53 AM 26.1 °F 14.0 °F 17.1 °F 69% 30.32 in 10.0 mi SSW 15.0 mph - N/A   Overcast
10:53 AM 28.0 °F 17.0 °F 19.0 °F 69% 30.31 in 10.0 mi SW 13.8 mph - N/A   Overcast
11:53 AM 28.9 °F 17.7 °F 21.0 °F 72% 30.27 in 10.0 mi SW 15.0 mph - N/A   Overcast
12:53 PM 28.9 °F 18.6 °F 21.9 °F 75% 30.25 in 10.0 mi WSW 12.7 mph - N/A   Overcast
1:53 PM 30.0 °F 20.5 °F 23.0 °F 75% 30.23 in 10.0 mi SW 11.5 mph - N/A   Overcast
2:53 PM 30.0 °F 21.1 °F 24.1 °F 79% 30.22 in 10.0 mi SSW 10.4 mph - N/A   Overcast
3:53 PM 30.0 °F 21.1 °F 24.1 °F 79% 30.23 in 9.0 mi SW 10.4 mph - N/A   Overcast
4:09 PM 30.2 °F 21.3 °F 24.8 °F 80% 30.20 in 9.0 mi SSW 10.4 mph - N/A   Overcast
4:53 PM 30.9 °F 22.2 °F 25.0 °F 79% 30.23 in 10.0 mi SW 10.4 mph - N/A   Overcast
5:49 PM 30.2 °F 20.8 °F 26.6 °F 86% 30.19 in 9.0 mi SW 11.5 mph - N/A   Overcast
5:53 PM 30.9 °F 22.2 °F 26.1 °F 82% 30.22 in 9.0 mi SW 10.4 mph - N/A   Overcast
6:51 PM 30.2 °F 20.8 °F 26.6 °F 86% 30.19 in 8.0 mi SW 11.5 mph - N/A   Overcast
6:53 PM 30.9 °F 22.2 °F 27.0 °F 85% 30.22 in 8.0 mi SW 10.4 mph - N/A   Overcast
7:48 PM 30.2 °F 19.8 °F 28.4 °F 93% 30.19 in 5.0 mi WSW 13.8 mph - 0.00 in Rain Light Freezing Rain
7:53 PM 30.9 °F 19.8 °F 28.0 °F 89% 30.22 in 5.0 mi WSW 16.1 mph 21.9 mph 0.00 in Rain Light Freezing Rain
8:13 PM 30.2 °F 18.5 °F 28.4 °F 93% 30.19 in 5.0 mi WSW 17.3 mph 21.9 mph 0.00 in   Overcast
8:53 PM 30.9 °F 19.4 °F 28.0 °F 89% 30.22 in 6.0 mi West 17.3 mph - 0.00 in   Overcast
9:42 PM 30.2 °F 19.8 °F 26.6 °F 86% 30.19 in 7.0 mi West 13.8 mph - N/A   Overcast
9:53 PM 30.9 °F 19.4 °F 26.1 °F 82% 30.22 in 7.0 mi West 17.3 mph - N/A   Overcast
10:53 PM 30.9 °F 19.8 °F 26.1 °F 82% 30.22 in 7.0 mi West 16.1 mph - N/A   Overcast
11:44 PM 30.2 °F 20.2 °F 26.6 °F 86% 30.19 in 7.0 mi West 12.7 mph - N/A   Overcast
11:53 PM 30.0 °F 20.0 °F 26.1 °F 85% 30.22 in 7.0 mi West 12.7 mph - N/A   Overcast